SCP
0 0 0 0 0 0 0 0 0 0 0 0 0 0 0 0 0 0 0 0 0 0 0 0 0 0 0 0 0 0 0 0 0 0 0 0 0 0 0 0 0 0 0 0
0 0 0 0 0 0 0 0 0 0 0 0 0 0 0 0 0 0 0 0 0 0 0 0 0 0 0 0 0 0 0 0 0 0 0 0 0 0 0 0 0 0 0 0
0 0 0 0 0 0 0 0 0 0 0 0 0 0 0 0 0 0 0 0 0 0 0 0 0 0 0 0 0 0 0 0 0 0 0 0 0 0 0 0 0 0 0 0
0 0 0 0 0 0 0 0 0 0 0 0 0 0 0 0 0 0 0 0 0 0 0 0 0 0 0 0 0 0 0 0 0 0 0 0 0 0 0 0 0 0 0 0
0 0 0 0 0 0 0 0 0 0 0 0 0 0 0 0 0 0 0 0 0 0 0 0 0 0 0 0 0 0 0 0 0 0 0 0 0 0 0 0 0 0 0 0
0 0 0 0 0 0 0 0 0 0 0 0 0 0 0 0 0 0 0 0 0 0 0 0 0 0 0 0 0 0 0 0 0 0 0 0 0 0 0 0 0 0 0 0
0 0 0 0 0 0 0 0 0 0 0 0 0 0 0 0 0 0 0 0 0 0 0 0 0 0 0 0 0 0 0 0 0 0 0 0 0 0 0 0 0 0 0 0
0 0 0 0 0 0 0 0 0 0 0 0 0 0 0 0 0 0 0 0 0 0 0 0 0 0 0 0 0 0 0 0 0 0 0 0 0 0 0 0 0 0 0 0
0 0 0 0 0 0 0 0 0 0 0 0 0 0 0 0 0 0 0 0 0 0 0 0 0 0 0 0 0 0 0 0 0 0 0 0 0 0 0 0 0 0 0 0
0 0 0 0 0 0 0 0 0 0 0 0 0 0 0 0 0 0 0 0 0 0 0 0 0 0 0 0 0 0 0 0 0 0 0 0 0 0 0 0 0 0 0 0
0 0 0 0 0 0 0 0 0 0 0 0 0 0 0 0 0 0 0 0 0 0 0 0 0 0 0 0 0 0 0 0 0 0 0 0 0 0 0 0 0 0 0 0
0 0 0 0 0 0 0 0 0 0 0 0 0 0 0 0 0 0 0 0 0 0 0 0 0 0 0 0 0 0 0 0 0 0 0 0 0 0 0 0 0 0 0 0
0 0 0 0 0 0 0 0 0 0 0 0 0 0 0 0 0 0 0 0 0 0 0 0 0 0 0 0 0 0 0 0 0 0 0 0 0 0 0 0 0 0 0 0
0 0 0 0 0 0 0 0 0 0 0 0 0 0 0 0 0 0 0 0 0 0 0 0 0 0 0 0 0 0 0 0 0 0 0 0 0 0 0 0 0 0 0 0
0 0 0 0 0 0 0 0 0 0 0 0 0 0 0 0 0 0 0 0 0 0 0 0 0 0 0 0 0 0 0 0 0 0 0 0 0 0 0 0 0 0 0 0
0 0 0 0 0 0 0 0 0 0 0 0 0 0 0 0 0 0 0 0 0 0 0 0 0 0 0 0 0 0 0 0 0 0 0 0 0 0 0 0 0 0 0 0
0 0 0 0 0 0 0 0 0 0 0 0 0 0 0 0 0 0 0 0 0 0 0 0 0 0 0 0 0 0 0 0 0 0 0 0 0 0 0 0 0 0 0 0
0 0 0 0 0 0 0 0 0 0 0 0 0 0 0 0 0 0 0 0 0 0 0 0 0 0 0 0 0 0 0 0 0 0 0 0 0 0 0 0 0 0 0 0
0 0 0 0 0 0 0 0 0 0 0 0 0 0 0 0 0 0 0 0 0 0 0 0 0 0 0 0 0 0 0 0 0 0 0 0 0 0 0 0 0 0 0 0
0 0 0 0 0 0 0 0 0 0 0 0 0 0 0 0 0 0 0 0 0 0 0 0 0 0 0 0 0 0 0 0 0 0 0 0 0 0 0 0 0 0 0 0
0 0 0 0 0 0 0 0 0 0 0 0 0 0 0 0 0 0 0 0 0 0 0 0 0 0 0 0 0 0 0 0 0 0 0 0 0 0 0 0 0 0 0 0
0 0 0 0 0 0 0 0 0 0 0 0 0 0 0 0 0 0 0 0 0 0 0 0 0 0 0 0 0 0 0 0 0 0 0 0 0 0 0 0 0 0 0 0
0 0 0 0 0 0 0 0 0 0 0 0 0 0 0 0 0 0 0 0 0 0 0 0 0 0 0 0 0 0 0 0 0 0 0 0 0 0 0 0 0 0 0 0
0 0 0 0 0 0 0 0 0 0 0 0 0 0 0 0 0 0 0 0 0 0 0 0 0 0 0 0 0 0 0 0 0 0 0 0 0 0 0 0 0 0 0 0
0 0 0 0 0 0 0 0 0 0 0 0 0 0 0 0 0 0 0 0 0 0 0 0 0 0 0 0 0 0 0 0 0 0 0 0 0 0 0 0 0 0 0 0
0 0 0 0 0 0 0 0 0 0 0 0 0 0 0 0 0 0 0 0 0 0 0 0 0 0 0 0 0 0 0 0 0 0 0 0 0 0 0 0 0 0 0 0
0 0 0 0 0 0 0 0 0 0 0 0 0 0 0 0 0 0 0 0 0 0 0 0 0 0 0 0 0 0 0 0 0 0 0 0 0 0 0 0 0 0 0 0
Wind_Speed
0 0 2 2 2 3 4 5 6 3 1 4 7 8 9 9 10 10 9 9 8 8 8 8 8 8 9 9 8 8 9 10 9 9 8 9 9 8 8 7 7 7 7 7
3 3 3 3 2 2 2 3 2 1 3 6 8 9 9 9 10 10 9 10 9 9 9 8 8 8 8 8 8 7 8 8 8 8 8 8 8 7 7 7 7 6 6 6
4 4 5 4 1 2 1 1 2 3 5 9 9 9 9 9 9 9 10 10 9 9 8 8 8 8 8 8 7 8 8 8 7 7 7 7 7 7 7 7 6 6 6 7
3 4 5 5 3 0 0 1 2 4 7 7 8 8 7 7 9 10 10 10 9 9 9 8 8 8 7 7 7 7 7 7 7 6 7 6 6 7 6 6 6 6 6 7
4 4 1 5 3 2 2 1 3 6 9 10 11 10 7 6 8 9 10 9 9 9 9 9 8 8 7 7 7 7 7 6 6 6 6 6 6 6 5 5 5 5 6 6
4 4 1 5 5 1 3 3 6 8 10 10 10 5 6 8 9 10 10 10 10 10 9 9 8 7 7 7 7 7 6 6 6 6 6 6 6 5 5 4 5 5 6 6
5 4 3 6 3 4 4 5 8 8 9 9 4 6 12 12 11 11 11 11 11 10 9 8 7 7 7 7 7 6 6 5 6 6 5 5 5 4 4 4 5 4 4 5
3 3 4 5 3 1 6 8 9 9 9 10 12 14 14 13 12 12 12 12 11 10 9 8 7 7 7 7 6 6 5 6 6 5 4 5 4 4 4 3 3 3 3 4
3 5 7 4 6 6 7 10 10 11 12 14 14 14 14 13 12 12 12 11 10 10 9 8 6 6 7 6 5 5 5 6 6 5 4 4 3 4 3 2 2 3 3 4
5 6 7 7 8 8 9 11 12 13 14 15 15 15 14 12 12 11 11 10 9 10 9 8 6 6 6 6 5 5 6 5 5 5 4 4 2 3 3 3 3 3 3 4
5 8 8 7 9 11 12 14 14 14 14 14 16 15 14 12 12 11 11 10 9 9 9 9 7 6 6 6 5 5 5 5 4 5 5 4 5 5 5 7 7 5 5 4
3 10 8 11 11 14 15 15 15 16 15 14 14 15 14 12 12 11 11 10 9 9 9 9 8 7 6 5 5 5 5 4 3 3 3 3 5 6 6 5 4 4 5 6
7 10 11 15 15 14 15 15 15 15 15 15 14 14 14 13 12 11 11 11 10 9 9 8 7 7 6 5 5 4 4 3 2 3 3 3 3 4 5 5 3 2 1 1
15 15 16 16 15 15 16 16 15 15 15 14 14 14 13 13 12 12 11 10 10 10 9 8 7 7 6 5 4 4 4 4 2 2 2 2 2 2 2 3 5 5 5 4
12 10 15 17 17 17 17 17 16 15 15 14 14 14 13 13 12 11 11 10 10 9 8 7 7 7 5 5 4 3 2 3 2 2 2 2 2 1 2 2 2 2 4 6
13 16 18 19 19 18 18 18 16 16 15 15 14 14 13 13 12 11 10 10 9 8 8 7 6 6 5 4 4 3 3 3 1 0 2 2 2 1 1 1 1 1 1 2
19 19 20 19 19 18 17 16 16 16 15 15 15 14 14 13 12 11 10 9 8 7 7 6 6 5 4 4 3 2 3 5 5 3 1 1 1 1 1 1 1 1 2 5
16 18 19 20 18 18 17 16 16 16 15 15 15 14 13 13 12 11 10 9 8 7 6 6 5 4 4 3 1 1 1 2 2 1 1 1 1 1 1 1 1 1 1 5
15 17 17 18 18 17 16 16 16 16 16 15 15 14 13 12 11 10 10 9 8 8 7 6 3 4 4 3 2 3 2 1 1 1 1 2 2 1 1 1 1 1 0 0
16 17 18 18 18 17 16 16 16 15 15 15 14 14 13 12 11 10 9 8 6 5 7 6 6 5 4 4 5 3 2 2 1 1 1 1 1 1 1 1 0 0 0 1
18 19 19 18 18 17 16 17 16 15 15 15 14 14 13 12 11 10 8 7 7 6 7 6 6 5 4 3 6 4 2 1 1 1 1 1 1 1 1 1 1 1 1 1
18 18 19 18 17 16 15 15 15 16 15 14 14 13 13 12 11 9 8 4 7 7 7 8 7 3 2 3 5 3 2 2 2 1 1 1 1 1 1 1 1 1 1 1
16 17 18 18 18 17 16 15 15 15 15 14 14 14 13 11 9 9 8 7 7 8 7 5 6 7 4 7 5 3 2 2 2 2 1 2 2 2 2 2 2 2 2 2
17 17 17 17 17 17 17 16 15 13 14 13 13 13 12 10 8 7 5 7 7 8 7 6 9 8 8 8 5 4 3 3 3 3 2 2 3 3 2 3 3 3 3 3
17 17 18 18 17 14 15 15 15 14 14 11 13 14 11 9 8 7 7 9 10 9 8 9 10 9 9 8 6 5 4 3 2 3 3 3 3 3 3 3 3 3 3 3
16 15 14 14 13 12 13 13 12 12 12 11 11 11 10 8 9 8 7 9 11 9 8 8 11 10 10 8 7 6 5 4 5 6 5 5 5 4 4 4 4 4 4 3
16 14 12 13 12 13 12 12 12 13 12 12 12 11 11 10 9 9 9 9 9 10 9 8 9 9 9 8 7 6 6 5 5 5 5 5 5 5 5 6 5 4 4 4
Wind_Direction
295 15 245 253 252 258 284 306 308 341 45 126 145 142 138 136 138 137 135 131 124 117 114 112 107 102 97 94 89 86 84 81 78 76 75 75 74 73 73 73 74 75 76 77
192 190 208 221 226 241 283 302 306 290 84 97 120 126 133 140 144 145 140 134 132 127 125 122 118 114 108 103 99 95 89 87 86 83 79 77 76 77 76 74 72 74 76 77
206 186 228 218 203 241 243 344 319 334 94 131 136 142 147 152 151 147 141 140 139 133 129 127 124 119 115 110 105 99 94 94 92 88 84 81 81 79 78 79 79 78 77 76
219 215 244 79 71 357 314 86 62 89 119 135 130 126 127 140 145 144 144 145 142 136 129 124 122 121 119 115 111 104 100 97 95 93 91 87 82 81 81 80 81 80 78 78
247 241 205 133 157 188 248 125 116 126 125 119 121 119 109 117 131 138 141 139 133 129 127 127 127 129 127 118 114 110 105 102 98 95 93 89 84 83 85 87 87 88 82 76
248 277 308 102 113 126 255 168 132 139 143 145 163 166 131 131 129 128 128 127 125 125 126 128 131 134 128 121 115 109 105 101 95 90 88 85 85 87 89 93 92 89 82 74
256 266 87 94 125 209 261 84 132 143 148 156 147 83 118 129 126 125 126 126 127 128 129 129 134 132 122 116 109 104 99 95 93 93 94 91 91 91 95 93 87 81 84 86
250 263 96 108 174 331 69 109 130 134 134 119 106 110 120 124 126 128 128 128 129 127 126 128 133 130 120 113 112 108 98 95 95 91 85 91 94 95 95 98 111 103 97 99
22 51 80 83 77 85 113 124 128 128 125 124 124 126 126 127 129 131 130 130 132 130 126 126 127 126 120 120 120 113 104 95 91 88 82 84 97 107 113 114 93 87 89 90
126 112 116 111 111 109 114 121 125 126 128 131 129 129 129 129 129 130 129 131 134 133 131 129 131 128 122 125 125 120 109 103 102 99 95 88 77 82 76 69 71 74 69 74
131 130 132 131 125 120 116 119 121 123 128 131 131 132 132 131 131 131 130 134 137 136 134 134 134 130 127 127 129 120 116 114 109 99 91 93 79 48 40 55 34 16 33 39
155 160 154 140 136 133 129 129 130 130 129 133 133 133 133 132 132 133 135 137 138 136 133 132 135 131 128 127 129 128 128 124 116 110 103 106 116 116 68 56 82 56 24 2
108 131 118 128 135 135 132 132 132 132 132 133 133 135 134 133 136 138 140 142 139 137 134 133 132 127 125 125 123 119 111 104 105 106 113 108 109 120 132 141 158 151 112 18
119 118 124 134 135 134 131 130 128 128 130 132 134 136 135 135 138 140 141 140 140 139 136 137 134 129 131 130 124 124 123 116 125 116 105 103 106 107 109 127 147 154 162 177
141 135 135 134 133 133 134 134 133 133 133 134 138 139 141 141 141 140 140 141 143 143 141 140 135 132 136 131 130 129 124 110 103 96 119 117 113 114 103 94 95 109 132 149
135 131 136 139 141 143 145 145 142 141 141 142 143 144 144 143 141 140 142 146 149 145 141 141 138 137 139 140 147 148 117 80 321 196 139 128 129 116 106 115 123 109 82 85
145 148 150 150 151 153 153 151 146 145 146 146 145 144 145 144 144 145 148 149 147 143 145 148 147 148 152 157 193 174 140 141 192 226 141 83 83 93 100 102 117 120 86 68
158 156 156 155 154 153 152 150 148 148 148 147 146 149 151 152 151 150 150 150 153 155 157 158 155 165 159 156 187 216 152 141 159 106 91 71 46 116 123 117 116 116 126 138
153 151 152 153 152 152 151 150 150 150 150 151 153 155 155 154 152 153 156 161 165 163 161 151 145 200 165 139 246 206 195 158 150 136 130 134 214 192 149 138 131 118 58 65
150 150 150 151 152 152 151 150 150 151 153 156 156 156 158 158 159 161 166 173 172 156 156 161 185 193 184 171 252 234 177 190 187 161 184 189 176 169 176 186 177 148 268 289
153 152 152 152 152 153 153 153 153 155 158 161 162 162 161 162 166 169 180 175 164 165 165 169 205 198 192 167 225 240 196 205 210 175 188 192 185 215 210 208 218 221 252 273
155 155 154 153 153 153 154 156 157 158 160 165 167 166 165 168 173 178 191 181 159 163 194 192 197 159 147 244 231 222 207 219 233 210 197 217 223 227 221 227 236 237 244 261
156 156 156 156 156 153 155 160 161 162 166 169 171 172 174 175 178 183 182 180 174 175 209 196 137 136 184 238 242 228 221 235 245 232 207 212 226 227 228 231 242 252 257 259
156 157 157 156 154 156 161 164 164 166 170 173 174 176 178 178 184 195 174 154 161 171 204 146 147 173 218 240 236 230 220 220 232 240 236 224 222 226 234 243 250 251 246 251
158 158 158 159 161 164 164 165 165 170 174 176 176 179 186 189 184 184 179 169 165 188 198 166 178 196 224 234 230 233 237 245 275 293 267 258 252 239 235 245 253 258 257 254
159 162 163 168 166 164 165 168 172 174 178 178 179 181 186 188 189 182 186 187 181 198 213 185 183 200 224 231 230 236 244 222 219 235 248 254 254 257 255 255 250 252 252 251
162 161 163 170 171 172 172 174 176 178 180 182 181 181 184 187 190 190 192 191 185 194 206 204 198 203 216 225 230 232 237 241 244 246 246 246 249 250 248 246 249 247 246 242